Farmville, Virginia, United States (23901)
Lat: 37.30N, Lon: 78.39W
Wx Zone: VAZ060
Local Info
Past Weather Observations for Today

NOTE: This archive is for the closest National Weather Service station to Farmville. Information may differ from the station used for current weather conditions.

Click here for Long-term Archive

Time Weather Temperature Dewpoint Humidity Pressure Winds Precip Visibility
20:21
Overcast
Light Rain
50°F / 10°C 50°F / 10°C 100% 29.68 in
(1005 mb)
NE 5.8 mph
(NE 9 kph)
0.01 in
(0.25 mm)
10SM
20:13
Overcast
Light Rain
50°F / 10°C 50°F / 10°C 100% 29.68 in
(1005 mb)
NE 5.8 mph
(NE 9 kph)
0.01 in
(0.25 mm)
10SM
20:01
Overcast
Light Rain
50°F / 10°C 48°F / 9°C 94% 29.68 in
(1005 mb)
NE 6.9 mph
(NE 11 kph)
0.01 in
(0.25 mm)
7SM
19:54
Overcast
Light Rain
50°F / 10°C 48°F / 9°C 94% 29.68 in
(1005 mb)
NE 8.1 mph
(NE 13 kph)
0.03 in
(0.76 mm)
6SM
19:51
Overcast
Light Rain
50°F / 10°C 48°F / 9°C 94% 29.68 in
(1005 mb)
NE 10.4 mph
(NE 17 kph)
0.03 in
(0.76 mm)
5SM
19:24
Overcast
Light Rain
50°F / 10°C 48°F / 9°C 94% 29.68 in
(1005 mb)
NE 8.1 mph
(NE 13 kph)
0.02 in
(0.51 mm)
4SM
18:54
Overcast
Light Rain
50°F / 10°C 48°F / 9°C 94% 29.68 in
(1005 mb)
NE 8.1 mph
(NE 13 kph)
0.01 in
(0.25 mm)
4SM
18:31
Overcast
52°F / 11°C 48°F / 9°C 88% 29.65 in
(1004 mb)
NE 11.5 mph
(NE 19 kph)
0.01 in
(0.25 mm)
10SM
18:01
Overcast
Light Rain
52°F / 11°C 48°F / 9°C 88% 29.65 in
(1004 mb)
NE 5.8 mph
(NE 9 kph)
0.01 in
(0.25 mm)
8SM
17:54
Overcast
Light Rain
52°F / 11°C 50°F / 10°C 94% 29.65 in
(1004 mb)
Calm 0.12 in
(3.05 mm)
9SM
16:54
Overcast
Light Rain
52°F / 11°C 52°F / 11°C 100% 29.65 in
(1004 mb)
Calm 0.31 in
(7.87 mm)
9SM
16:50
Overcast
Light Rain
52°F / 11°C 52°F / 11°C 100% 29.65 in
(1004 mb)
Calm 0.31 in
(7.87 mm)
4SM
16:43
Overcast
Rain
52°F / 11°C 52°F / 11°C 100% 29.65 in
(1004 mb)
Calm 0.29 in
(7.37 mm)
2SM
16:40
Overcast
Rain
52°F / 11°C 52°F / 11°C 100% 29.62 in
(1003 mb)
Calm 0.27 in
(6.86 mm)
1 1/4SM
16:35
Overcast
Heavy Rain
52°F / 11°C 50°F / 10°C 94% 29.62 in
(1003 mb)
Calm 0.24 in
(6.10 mm)
2 1/2SM
16:27
Overcast
Heavy Rain
52°F / 11°C 52°F / 11°C 100% 29.62 in
(1003 mb)
NW 4.6 mph
(NW 7 kph)
0.11 in
(2.79 mm)
1 3/4SM
16:10
Overcast
Light Rain
52°F / 11°C 50°F / 10°C 94% 29.62 in
(1003 mb)
Calm 0.06 in
(1.52 mm)
6SM
15:58
Overcast
Heavy Rain
52°F / 11°C 50°F / 10°C 94% 29.62 in
(1003 mb)
NNW 3.5 mph
(NNW 6 kph)
0.02 in
(0.51 mm)
2 1/2SM
15:54
Overcast
Light Rain
52°F / 11°C 50°F / 10°C 94% 29.62 in
(1003 mb)
Variable 3.5 mph
(Variable 6 kph)
0.03 in
(0.76 mm)
6SM
14:54
Overcast
Light Rain
52°F / 11°C 50°F / 10°C 94% 29.62 in
(1003 mb)
NE 6.9 mph
(NE 11 kph)
0.01 in
(0.25 mm)
10SM
14:01
Overcast
Light Rain
52°F / 11°C 50°F / 10°C 94% 29.62 in
(1003 mb)
NE 11.5 mph
(NE 19 kph)
0.01 in
(0.25 mm)
10SM
13:54
Overcast
Light Rain
52°F / 11°C 50°F / 10°C 94% 29.62 in
(1003 mb)
NE 9.2 mph
(NE 15 kph)
0.01 in
(0.25 mm)
10SM
12:54
Overcast
Light Rain
52°F / 11°C 48°F / 9°C 88% 29.62 in
(1003 mb)
NE 10.4 mph
(NE 17 kph)
0.07 in
(1.78 mm)
7SM
12:30
Overcast
Light Rain
52°F / 11°C 48°F / 9°C 88% 29.62 in
(1003 mb)
NNE 10.4 mph
(NNE 17 kph)
0.05 in
(1.27 mm)
6SM
12:25
Overcast
Rain
52°F / 11°C 48°F / 9°C 88% 29.62 in
(1003 mb)
NNE 13.8 mph
(NNE 22 kph)
0.03 in
(0.76 mm)
6SM
11:54
Overcast
Light Rain
52°F / 11°C 50°F / 10°C 94% 29.62 in
(1003 mb)
NNE 9.2 mph
(NNE 15 kph)
0.18 in
(4.57 mm)
7SM
11:28
Overcast
Rain
52°F / 11°C 50°F / 10°C 94% 29.62 in
(1003 mb)
NNE 9.2 mph
(NNE 15 kph)
0.13 in
(3.30 mm)
6SM
11:18
Overcast
Heavy Rain
52°F / 11°C 50°F / 10°C 94% 29.62 in
(1003 mb)
N 6.9 mph
(N 11 kph)
0.11 in
(2.79 mm)
3SM
10:54
Overcast
Light Rain
52°F / 11°C 52°F / 11°C 100% 29.62 in
(1003 mb)
N 5.8 mph
(N 9 kph)
0.11 in
(2.79 mm)
8SM
09:54
Overcast
Rain
52°F / 11°C 52°F / 11°C 100% 29.62 in
(1003 mb)
ENE 4.6 mph
(ENE 7 kph)
0.20 in
(5.08 mm)
5SM
09:31
Overcast
Light Rain
52°F / 11°C 52°F / 11°C 100% 29.62 in
(1003 mb)
NNE 3.5 mph
(NNE 6 kph)
0.13 in
(3.30 mm)
6SM
09:18
Overcast
Heavy Rain
52°F / 11°C 50°F / 10°C 94% 29.62 in
(1003 mb)
N 5.8 mph
(N 9 kph)
0.08 in
(2.03 mm)
2 1/2SM
08:54
Overcast
Light Rain
52°F / 11°C 52°F / 11°C 100% 29.62 in
(1003 mb)
N 4.6 mph
(N 7 kph)
0.05 in
(1.27 mm)
7SM
08:32
Overcast
Light Rain
52°F / 11°C 52°F / 11°C 100% 29.62 in
(1003 mb)
Calm 0.03 in
(0.76 mm)
10SM
08:10
Overcast
Light Rain
52°F / 11°C 52°F / 11°C 100% 29.62 in
(1003 mb)
Calm 0.01 in
(0.25 mm)
10SM
07:54
Overcast
Light Rain
52°F / 11°C 50°F / 10°C 94% 29.62 in
(1003 mb)
Calm 0.24 in
(6.10 mm)
7SM
07:01
Overcast
Rain
52°F / 11°C 52°F / 11°C 100% 29.62 in
(1003 mb)
NE 3.5 mph
(NE 6 kph)
0.02 in
(0.51 mm)
6SM
06:54
Overcast
Rain
52°F / 11°C 52°F / 11°C 100% 29.62 in
(1003 mb)
NE 5.8 mph
(NE 9 kph)
0.06 in
(1.52 mm)
5SM
06:46
Overcast
Light Rain
52°F / 11°C 52°F / 11°C 100% 29.62 in
(1003 mb)
NE 5.8 mph
(NE 9 kph)
0.02 in
(0.51 mm)
9SM
06:29
Overcast
Light Rain
52°F / 11°C 52°F / 11°C 100% 29.62 in
(1003 mb)
ENE 3.5 mph
(ENE 6 kph)
0.01 in
(0.25 mm)
10SM
06:20
Overcast
Light Rain
52°F / 11°C 52°F / 11°C 100% 29.62 in
(1003 mb)
ENE 4.6 mph
(ENE 7 kph)
0.01 in
(0.25 mm)
10SM
06:16
Overcast
Light Rain
52°F / 11°C 52°F / 11°C 100% 29.62 in
(1003 mb)
ENE 5.8 mph
(ENE 9 kph)
0.00 in
(0.00 mm)
10SM
05:54
Overcast
Light Rain
52°F / 11°C 52°F / 11°C 100% 29.62 in
(1003 mb)
NE 8.1 mph
(NE 13 kph)
0.00 in
(0.00 mm)
10SM
05:42
Overcast
Light Rain
52°F / 11°C 52°F / 11°C 100% 29.59 in
(1002 mb)
NNE 3.5 mph
(NNE 6 kph)
0.00 in
(0.00 mm)
10SM
04:54
Overcast
52°F / 11°C 50°F / 10°C 94% 29.59 in
(1002 mb)
NNE 6.9 mph
(NNE 11 kph)
- 10SM
04:37
Overcast
52°F / 11°C 50°F / 10°C 94% 29.59 in
(1002 mb)
NE 6.9 mph
(NE 11 kph)
- 10SM
04:29
Overcast
52°F / 11°C 50°F / 10°C 94% 29.59 in
(1002 mb)
NE 10.4 mph
(NE 17 kph)
- 10SM
04:08
Overcast
54°F / 12°C 52°F / 11°C 94% 29.59 in
(1002 mb)
NE 9.2 mph
(NE 15 kph)
- 10SM
03:54
Overcast
52°F / 11°C 52°F / 11°C 100% 29.59 in
(1002 mb)
N 9.2 mph
(N 15 kph)
- 10SM
03:43
Mostly Cloudy
54°F / 12°C 52°F / 11°C 94% 29.59 in
(1002 mb)
NE 9.2 mph
(NE 15 kph)
- 10SM
03:10
Overcast
54°F / 12°C 52°F / 11°C 94% 29.62 in
(1003 mb)
NE 8.1 mph
(NE 13 kph)
- 10SM
02:54
Mostly Cloudy
54°F / 12°C 50°F / 10°C 88% 29.62 in
(1003 mb)
NNE 9.2 mph
(NNE 15 kph)
- 10SM
02:49
Overcast
54°F / 12°C 50°F / 10°C 88% 29.62 in
(1003 mb)
NE 6.9 mph
(NE 11 kph)
- 10SM
02:45
Overcast
Thunder Storms
54°F / 12°C 48°F / 9°C 82% 29.62 in
(1003 mb)
N 6.9 mph
(N 11 kph)
- 10SM
02:30
Overcast
Thunder Storms
54°F / 12°C 50°F / 10°C 88% 29.62 in
(1003 mb)
NE 5.8 mph
(NE 9 kph)
- 10SM
01:54
Overcast
54°F / 12°C 52°F / 11°C 94% 29.62 in
(1003 mb)
N 4.6 mph
(N 7 kph)
- 10SM
01:04
Mostly Cloudy
54°F / 12°C 50°F / 10°C 88% 29.65 in
(1004 mb)
NNE 5.8 mph
(NNE 9 kph)
- 10SM
00:54
Mostly Cloudy
54°F / 12°C 50°F / 10°C 88% 29.65 in
(1004 mb)
NE 5.8 mph
(NE 9 kph)
- 10SM
00:34
Mostly Cloudy
54°F / 12°C 50°F / 10°C 88% 29.65 in
(1004 mb)
NE 9.2 mph
(NE 15 kph)
- 10SM
Time Weather Temperature Dewpoint Humidity Pressure Winds Precip Visibility


Weather for websites

WeatherForYou.com, LLC is not responsible for any damages or problems caused by this service. Current weather conditions are obtained from the closest station including government and personal stations which may have varying degrees of accuracy. Weather forecasts are derived from the NOAA NDFD. Like all things, this site belongs to Jesus Christ... He just trusts us to maintain it. If you have any questions or comments email webmaster@weatherforyou.com

Copyright © 2016, WeatherForYou.com LLC. All rights reserved.